User: anonymous   Login
Location: Unspecified
(0.0000°N, 0.0000°E)
Time: 11:03:09
(UTC+00:00)
Language:

CUBEBUG 1 - Orbit

View from above orbital plane
View from above orbital plane
View from above satellite
View from above satellite

Ground track
Ground track

The orbit data is extracted from the following two-line orbital elements,

1 39153U 13018D   17352.22867844  .00000294  00000-0  45534-4 0  9993
2 39153  97.9838  83.5414 0017377 168.2945 191.8675 14.80308328250823
Epoch (UTC): 18 December 2017 05:29:17
Eccentricity: 0.0017377
inclination: 97.9838°
perigee height: 616 km
apogee height: 640 km
right ascension of ascending node: 83.5414°
argument of perigee: 168.2945°
revolutions per day: 14.80308328
mean anomaly at epoch: 191.8675°
orbit number at epoch: 25082

The dashed part of the orbit path shows where the satellite is in the earth's shadow,  

DLR